sat.trackr.live / text

‹ back to catalog

STARLINK-4434

NORAD 53501 · 2022-099AN

PAYLOAD ACTIVE UNKNOWN

§ Identity

Operator
Country
US
Launch date
2022-08-12
Launch site
AFWTR
Launch vehicle
Mass (kg)
RCS (m²)

Purposes: comms

External: N2YO · Heavens-Above · Gunter

§ Orbital elements

Epoch: 2026-05-25T04:00:03.998880Z

Period
93.56 min
Inclination
97.6055°
Eccentricity
0.0001674
Mean motion
15.39096243 rev/d
Perigee alt
447.6 km
Apogee alt
449.9 km
Semi-major
6,826.9 km
B*
3.7234e-3
RAAN
267.2468°
Arg perigee
69.4341°
Mean anomaly
160.9488°
Rev number
587

§ Raw data

STARLINK-44341 53501U 22099AN  26145.16671295  .00146759  00000+0  37234-2 0  99932 53501  97.6055 267.2468 0001674  69.4341 160.9488 15.39096243  5876

JSON: /api/v1/satellites/53501 · /tle

For live sub-satellite position, see the globe view (requires WebGL).

§ Visibility from observer

Set your observer location to see the next 7 days of passes ≥ 10°. The values pass through the URL so the page stays shareable.

No JS? Fill the form by hand. The geolocation button needs JavaScript.